Retour au catalogue

COSMOS 2530

ActifNavigationPO
NORAD 43751·PAYLOAD·🇷🇺 Russia

Lancé Nov 30, 2018 depuis Plesetsk Cosmodrome

Loading…

Prochains Passages (prochaines 24 heures)

TLE

FraisSource: Space-Track

Époque: Sep 14, 2026, 13:37 UTC

1 43751U 18097A   26257.56780113  .00000066  00000-0  40686-3 0  9997
2 43751  82.5193 166.8242 0018450 198.4218 161.6196 12.42883233353399

Suivez COSMOS 2530 en temps réel avec AllMySat

Download on the App Store